Home   Weather   Loma Linda   Past weeks
Flag for USA

Past Weather in Loma Linda, California, USA — Yesterday and Last 2 Weeks

Now
59 °F

Mostly cloudy.


Feels Like: 58 °F
Forecast: 56 / 50 °F
Wind: 8 mph from Southwest

Location: Norton Air Force Base / San Bern

Current Time: May 26, 2019 at 2:30:37 pm

Latest Report: May 26, 2019 at 1:50 pm


Visibility: 7 mi

Pressure: 29.97 "Hg

Humidity: 59%

Dew Point: 45 °F

Location of Loma LindaLocation

Past Weather in Loma Linda — Graph

°F

Loma Linda Temperature Yesterday

Maximum temperature yesterday: 75 °F (at 1:50 pm)
Minimum temperature yesterday: 53 °F (at 5:20 am)
Average temperature yesterday: 61 °F

High & Low Weather Summary for the Past Weeks

 TemperatureHumidityPressure
High86 °F (May 14, 3:50 pm)88% (May 16, 8:45 am)30.04 "Hg (May 16, 8:45 am)
Low47 °F (May 24, 5:20 am)23% (May 24, 2:50 pm)29.70 "Hg (May 22, 4:20 am)
Average61 °F66%29.92 "Hg
* Reported May 11 12:50 pm — May 26 12:50 pm, Loma Linda. Weather by CustomWeather, © 2019

Note: Actual official high and low records may vary slightly from our data, if they occured in-between our weather recording intervals... More about our weather records

Advertising

Loma Linda Weather History for the Previous 24 Hours

Scroll right to see more
 ConditionsComfort  
Time TempWeatherWind HumidityBarometerVisibility
12:50 pm
Sun, May 26
59 °FMostly cloudy.10 mph63%29.97 "Hg7 mi
11:50 am57 °FOvercast.15 mph72%29.97 "Hg7 mi
10:50 am59 °FOvercast.No wind72%29.94 "Hg7 mi
9:58 am57 °FMostly cloudy.No wind77%29.92 "Hg7 mi
8:50 am57 °FMostly cloudy.No wind77%29.92 "Hg7 mi
7:48 am55 °FMostly cloudy.No wind82%29.90 "Hg7 mi
6:47 am55 °FMostly cloudy.No wind82%29.89 "Hg7 mi
5:41 am56 °FHeavy rain. Overcast.No wind80%29.87 "Hg3 mi
5:40 am56 °FHeavy rain. Overcast.No wind79%29.87 "Hg3 mi
5:00 am57 °FOvercast.No wind75%29.87 "Hg10 mi
4:40 am57 °FOvercast.3 mph77%29.87 "Hg10 mi
4:20 am57 °FDrizzle. Overcast.3 mph78%29.87 "Hg7 mi
3:40 am57 °FOvercast.5 mph75%29.86 "Hg10 mi
3:20 am57 °FOvercast.6 mph75%29.87 "Hg10 mi
2:40 am57 °FMostly cloudy.7 mph76%29.87 "Hg10 mi
2:20 am58 °FMostly cloudy.8 mph75%29.87 "Hg10 mi
1:40 am58 °FOvercast.9 mph72%29.87 "Hg10 mi
1:00 am59 °FOvercast.7 mph69%29.88 "Hg10 mi
12:40 am60 °FOvercast.5 mph69%29.88 "Hg10 mi
12:20 am60 °FOvercast.6 mph69%29.89 "Hg10 mi
12:00 am60 °FMostly cloudy.5 mph68%29.88 "Hg10 mi
11:20 pm
Sat, May 25
60 °FOvercast.5 mph68%29.89 "Hg10 mi
11:00 pm60 °FOvercast.6 mph67%29.89 "Hg10 mi
10:40 pm60 °FOvercast.6 mph66%29.89 "Hg10 mi
10:20 pm60 °FOvercast.6 mph66%29.89 "Hg10 mi
10:00 pm60 °FOvercast.7 mph66%29.89 "Hg10 mi
9:40 pm60 °FMostly cloudy.6 mph66%29.89 "Hg10 mi
8:50 pm61 °FPassing clouds.12 mph63%29.89 "Hg10 mi
7:50 pm63 °FPassing clouds.10 mph59%29.87 "Hg10 mi
6:50 pm68 °FScattered clouds.17 mph49%29.85 "Hg10 mi
4:47 pm75 °FScattered clouds.12 mph36%29.83 "Hg10 mi
3:50 pm75 °FScattered clouds.13 mph36%29.84 "Hg10 mi
2:55 pm75 °FScattered clouds.12 mph36%29.85 "Hg7 mi
Weather by CustomWeather, © 2019

See weather overview